Weather History for KCNO - October, 2012

Change the Weather History Date:

Sunday, October 7, 2012

  Actual Average Record
Temperature  
Mean Temperature 70 °F -  
Max Temperature 84 °F 81 °F 99 °F (2008)
Min Temperature 55 °F 49 °F 45 °F (2011)
Cooling Degree Days 4    
Growing Degree Days 20 (Base 50)    
Moisture  
Dew Point 58 °F    
Average Humidity 76    
Maximum Humidity 100    
Minimum Humidity 37    
Precipitation  
Precipitation 0.00 in - - ()
Sea Level Pressure  
Sea Level Pressure 29.91 in    
Wind  
Wind Speed 2 mph (West)    
Max Wind Speed 14 mph    
Max Gust Speed -    
Visibility 6 miles    
Events Fog    
Averages and records for this station are not official NWS values.
T = Trace of Precipitation, MM = Missing Value Source: NWS Daily Summary

Daily Weather History Graph

Daily Weather History Graph

Search for Another Location

Airport or City:

Trip Planner

Search our weather history database for the weather conditions in past years. The results will help you decide how hot, cold, wet, or windy it might be!

Date:

Astronomy

Oct. 07, 2012 Rise Set
Actual Time 6:49 AM PDT 6:25 PM PDT
Civil Twilight 6:24 AM PDT 6:50 PM PDT
Nautical Twilight 5:55 AM PDT 7:19 PM PDT
Astronomical Twilight 5:26 AM PDT 7:48 PM PDT
Moon 11:52 PM PDT (10/7) 1:19 PM PDT (10/7)
Length of Visible Light 12h 26m
Length of Day
11h 36m
Waning Gibbous, 55% of the Moon is Illuminated
Oct 7
Waning Gibbous
Oct 8
Last Quarter
Oct 15
New
Oct 21
First Quarter
Oct 29
Full

Hourly Weather History & Observations

Time (PDT) Temp. Heat Index Dew Point Humidity Pressure Visibility Wind Dir Wind Speed Gust Speed Precip Events Conditions
12:53 AM 64.0 °F - 59.0 °F 84% 29.91 in 6.0 mi Calm Calm - N/A   Haze
1:53 AM 63.0 °F - 57.9 °F 84% 29.91 in 5.0 mi Calm Calm - N/A   Haze
2:53 AM 61.0 °F - 57.0 °F 87% 29.91 in 4.0 mi Calm Calm - N/A   Clear
3:53 AM 57.9 °F - 55.9 °F 93% 29.90 in 3.0 mi Calm Calm - N/A   Clear
4:53 AM 59.0 °F - 57.0 °F 93% 29.90 in 3.0 mi Calm Calm - N/A   Clear
5:30 AM 57.2 °F - 55.4 °F 94% 29.92 in 2.5 mi Calm Calm - N/A   Clear
5:35 AM 59.0 °F - 57.2 °F 94% 29.92 in 0.5 mi Calm Calm - N/A Fog Fog
5:51 AM 59.0 °F - 57.2 °F 94% 29.92 in 0.2 mi Calm Calm - N/A Fog Fog
5:53 AM 59.0 °F - 57.9 °F 96% 29.91 in 0.5 mi Calm Calm - N/A Fog Fog
5:59 AM 57.2 °F - 57.2 °F 100% 29.92 in 1.0 mi Calm Calm - N/A   Clear
6:12 AM 57.2 °F - 55.4 °F 94% 29.92 in 2.0 mi Calm Calm - N/A   Clear
6:48 AM 55.4 °F - 53.6 °F 94% 29.93 in 6.0 mi Calm Calm - N/A   Partly Cloudy
6:53 AM 55.0 °F - 53.1 °F 93% 29.92 in 6.0 mi North 3.5 mph - N/A   Partly Cloudy
7:53 AM 61.0 °F - 59.0 °F 93% 29.94 in 6.0 mi Calm Calm - N/A   Clear
8:53 AM 66.0 °F - 60.1 °F 81% 29.95 in 6.0 mi Calm Calm - N/A   Haze
9:53 AM 71.1 °F - 59.0 °F 66% 29.94 in 6.0 mi Calm Calm - N/A   Haze
10:53 AM 75.0 °F - 57.9 °F 55% 29.93 in 6.0 mi Calm Calm - N/A   Haze
11:53 AM 78.1 °F - 57.9 °F 50% 29.91 in 6.0 mi NNW 3.5 mph - N/A   Haze
12:53 PM 82.9 °F 82.1 °F 55.9 °F 39% 29.89 in 6.0 mi Variable 4.6 mph - N/A   Haze
1:53 PM 84.0 °F 82.9 °F 55.0 °F 37% 29.87 in 10.0 mi WNW 8.1 mph - N/A   Partly Cloudy
2:53 PM 84.0 °F 83.0 °F 55.9 °F 38% 29.86 in 10.0 mi WSW 9.2 mph - N/A   Partly Cloudy
3:53 PM 82.9 °F 82.6 °F 57.9 °F 42% 29.86 in 10.0 mi West 10.4 mph - N/A   Partly Cloudy
4:53 PM 81.0 °F 81.0 °F 57.0 °F 44% 29.86 in 10.0 mi West 13.8 mph - N/A   Partly Cloudy
5:53 PM 77.0 °F - 57.9 °F 52% 29.86 in 10.0 mi WSW 10.4 mph - N/A   Partly Cloudy
6:53 PM 72.0 °F - 59.0 °F 64% 29.88 in 10.0 mi WSW 8.1 mph - N/A   Partly Cloudy
7:53 PM 70.0 °F - 60.1 °F 71% 29.91 in 10.0 mi West 11.5 mph - N/A   Clear
8:53 PM 68.0 °F - 61.0 °F 78% 29.91 in 7.0 mi WNW 8.1 mph - N/A   Clear
9:53 PM 66.9 °F - 61.0 °F 81% 29.92 in 6.0 mi WNW 5.8 mph - N/A   Haze
10:53 PM 64.0 °F - 60.1 °F 87% 29.93 in 5.0 mi Calm Calm - N/A   Clear
11:53 PM 63.0 °F - 60.1 °F 90% 29.93 in 4.0 mi Calm Calm - N/A   Clear